Dewpoint
2 1 1 1 1 -0 3 5 4 4 6 5 6 6 5 6 5 4 3 3 3 4 4 5 4 4 3 -1 -3 -2 -4 -2 1 0 -3 -4 -2 -2 -3 2 1 -1 -1 0
1 1 1 1 1 1 2 2 3 3 4 5 5 4 5 5 5 5 6 5 4 4 5 6 5 4 1 -3 -3 -2 -2 1 4 3 -2 -3 -1 -2 -3 -3 -1 1 3 0
0 1 1 1 1 1 1 1 1 2 3 3 4 4 4 5 4 4 5 5 5 5 6 4 5 5 2 -1 -1 -1 -0 4 3 4 1 -2 -0 -1 -2 -2 3 2 2 0
0 0 1 1 1 0 1 -0 0 2 2 2 3 3 3 4 4 4 4 4 4 4 6 5 6 5 4 3 1 2 2 4 3 3 2 2 3 1 -1 1 1 3 1 -0
0 0 0 0 0 0 1 0 0 1 1 1 2 2 3 3 2 2 3 3 3 4 5 4 5 4 3 2 3 3 3 4 4 3 1 2 3 1 1 1 2 2 2 2
-1 -1 -0 -0 -0 -0 0 0 0 1 0 -0 2 2 2 2 1 2 2 2 2 3 2 0 0 1 1 2 3 3 3 3 3 2 0 0 2 0 1 1 0 1 3 -0
-1 -2 -1 -1 -1 -0 0 -0 0 1 1 1 1 1 1 1 0 0 0 0 1 1 -0 0 1 1 2 2 3 2 2 3 3 2 1 2 -5 -6 -2 -1 -1 -2 -1 -2
-1 -1 -2 -2 -2 -1 -1 -1 -0 -1 0 -0 1 1 1 1 1 2 1 1 0 -0 0 1 2 1 -0 -0 1 2 1 2 2 2 1 -2 -3 -4 -5 -2 -3 -3 -2 -3
-1 -1 -1 -2 -3 -3 -1 -1 -1 -1 -1 -1 -0 -1 -0 1 1 1 1 1 1 1 1 1 2 1 -2 -2 -2 -2 1 2 2 0 1 -0 -6 -7 -7 -6 -1 -7 -4 -4
-2 -2 -4 -5 -4 -3 -2 -2 -1 -1 -2 -2 -3 -1 0 1 1 1 0 1 0 1 1 2 2 1 -3 -1 -1 -0 1 2 2 2 2 1 -3 -9 -6 1 -2 -10 -9 -8
-3 -4 -5 -6 -7 -6 -3 -3 -3 -2 -2 -1 -1 -1 -1 -0 0 1 0 0 0 -0 2 2 2 1 -1 -2 -4 -2 -1 0 0 1 1 1 -5 -8 -1 -4 -9 -10 -9 -9
-3 -5 -5 -6 -7 -7 -5 -3 -3 -3 -2 -2 -2 -1 -2 -2 -3 -0 -0 0 0 1 1 1 1 1 0 -1 0 -4 -1 -3 -1 -1 -2 -7 -7 -8 -7 -8 -9 -10 -11 -10
-4 -6 -6 -7 -7 -6 -5 -5 -2 -2 -2 -2 -2 -3 -3 -3 -4 -2 -0 -0 -0 0 0 -0 0 1 -0 -0 -0 -3 -4 -5 -3 -4 -5 -5 -8 -8 -8 -8 -9 -10 -10 -11
-5 -6 -7 -6 -7 -5 -4 -4 -3 -2 -2 -2 -4 -5 -5 -3 -2 -1 0 0 -0 0 0 -1 -0 -0 -1 -1 -2 -2 -3 -5 -3 -4 -7 -8 -8 -7 -7 -8 -9 -10 -11 -10
-4 -5 -5 -5 -6 -6 -5 -4 -4 -3 -2 -3 -3 -4 -5 -3 -2 -2 -2 -0 -1 -1 -1 -1 -0 -1 -2 -5 -5 -4 -7 -5 -5 -4 -7 -7 -7 -7 -8 -9 -9 -10 -11 -10
-5 -6 -6 -6 -7 -6 -5 -6 -10 -9 -3 -2 -4 -5 -5 -5 -3 -2 -2 -3 -2 -1 -1 -1 -1 -1 -2 -3 -3 -5 -5 -5 -5 -6 -7 -7 -8 -8 -8 -9 -9 -11 -12 -11
-6 -6 -7 -8 -8 -5 -5 -6 -4 -4 -2 -3 -4 -6 -5 -5 -4 -3 -3 -3 -2 -2 -2 -2 -3 -4 -2 -3 -2 -6 -6 -6 -6 -6 -8 -10 -10 -10 -10 -10 -11 -12 -13 -13
-6 -6 -6 -7 -8 -5 -3 -5 -6 -3 -3 -3 -5 -7 -7 -5 -5 -4 -4 -4 -4 -4 -4 -5 -5 -5 -5 -4 -7 -7 -7 -7 -7 -8 -10 -11 -12 -12 -12 -13 -14 -13 -14 -14
-5 -4 -4 -4 -3 -3 -4 -5 -6 -5 -3 -3 -6 -6 -5 -6 -6 -6 -5 -5 -6 -5 -7 -6 -6 -6 -6 -7 -8 -7 -8 -9 -10 -10 -12 -13 -13 -13 -14 -14 -14 -14 -13 -13
-3 -3 -3 -3 -3 -4 -4 -5 -3 -3 -3 -4 -8 -7 -7 -7 -7 -7 -7 -6 -5 -9 -8 -7 -7 -7 -9 -9 -9 -9 -9 -10 -12 -12 -13 -13 -13 -13 -13 -13 -13 -13 -13 -14
-3 -4 -5 -5 -4 -5 -5 -4 -5 -5 -6 -6 -7 -7 -8 -7 -7 -8 -6 -8 -8 -9 -10 -8 -9 -9 -12 -11 -11 -10 -10 -10 -11 -12 -13 -13 -13 -14 -14 -14 -14 -15 -16 -18
-4 -6 -5 -5 -5 -6 -7 -7 -8 -7 -7 -7 -9 -8 -7 -7 -6 -7 -6 -7 -8 -9 -12 -10 -11 -14 -13 -10 -11 -11 -11 -11 -12 -12 -12 -13 -13 -13 -14 -15 -17 -18 -17 -16
-7 -7 -7 -7 -9 -7 -7 -9 -10 -11 -9 -8 -8 -9 -8 -7 -7 -7 -7 -7 -7 -11 -11 -11 -14 -15 -10 -11 -12 -11 -11 -11 -12 -12 -13 -14 -15 -16 -17 -17 -16 -15 -14 -14
-7 -8 -9 -11 -8 -12 -11 -11 -11 -9 -9 -8 -8 -9 -8 -9 -9 -8 -8 -10 -11 -11 -14 -14 -16 -12 -10 -11 -13 -14 -14 -15 -15 -15 -16 -16 -15 -15 -15 -14 -14 -14 -14 -14
-10 -11 -10 -13 -12 -12 -11 -11 -10 -10 -9 -8 -9 -9 -9 -10 -10 -10 -10 -10 -10 -13 -15 -15 -12 -11 -11 -10 -11 -12 -12 -12 -12 -13 -13 -13 -13 -13 -14 -13 -12 -12 -12 -13
-13 -13 -14 -11 -11 -12 -11 -11 -11 -10 -9 -9 -11 -11 -10 -11 -11 -11 -10 -11 -14 -14 -15 -12 -12 -12 -12 -13 -12 -11 -11 -11 -11 -11 -11 -12 -11 -12 -13 -13 -14 -15 -16 -16
-13 -13 -12 -12 -13 -12 -12 -12 -12 -11 -10 -14 -17 -18 -15 -17 -16 -16 -16 -15 -15 -13 -13 -12 -12 -12 -12 -13 -13 -14 -14 -14 -14 -14 -15 -15 -15 -15 -15 -15 -16 -16 -16 -15
Wind_Speed
15 12 13 14 10 11 5 7 3 10 18 9 6 6 6 6 7 15 6 4 8 9 10 7 7 9 8 12 11 7 6 4 5 10 2 0 3 6 7 4 5 3 1 10
14 14 11 6 7 12 9 6 4 8 17 4 4 1 2 4 4 4 5 6 4 3 7 4 8 6 3 10 8 7 5 2 3 3 2 1 5 5 4 3 3 10 5 8
16 13 9 8 6 8 11 3 2 6 14 6 1 1 2 2 2 2 2 4 5 3 5 6 3 4 3 5 4 2 9 6 6 12 3 3 4 5 6 8 4 5 12 22
19 17 19 16 10 9 12 4 3 3 2 4 8 3 1 2 4 6 7 3 11 6 4 5 7 6 2 2 7 5 3 4 6 13 8 8 10 12 8 10 15 9 19 15
19 19 17 18 14 12 16 6 4 3 3 4 9 7 5 8 7 2 2 1 1 6 8 7 4 4 4 5 5 8 7 6 5 5 10 12 16 15 13 16 17 17 22 26
23 22 20 15 13 14 12 9 16 8 3 1 3 5 9 9 12 8 13 9 5 8 11 18 15 13 13 10 7 8 4 3 3 5 5 4 10 10 15 12 15 18 18 24
25 25 21 18 20 20 12 17 11 9 6 6 8 6 15 14 15 16 12 18 17 16 12 8 6 6 12 14 13 16 7 6 3 2 2 11 2 2 5 14 20 15 14 12
23 21 18 21 25 25 22 23 12 4 3 10 11 14 11 17 21 16 17 17 15 15 12 3 4 1 1 7 14 17 18 9 5 7 10 11 13 5 7 8 10 7 15 15
23 21 19 19 19 20 22 23 24 16 3 4 14 12 17 8 4 3 12 15 17 11 5 4 7 7 5 5 3 2 12 13 8 3 5 7 3 0 6 3 6 4 10 6
20 21 22 22 21 19 23 26 19 10 8 15 20 7 5 8 6 2 3 7 11 21 5 6 5 5 6 6 7 5 4 5 14 13 11 6 6 8 5 2 5 6 11 11
16 20 21 20 20 19 19 27 24 22 8 13 15 16 15 12 15 9 7 4 5 5 6 4 3 5 6 3 4 8 9 8 4 6 7 10 8 5 9 5 6 10 13 15
19 18 17 17 17 18 15 24 24 22 26 17 13 16 26 29 33 18 7 6 7 13 4 3 3 4 4 5 5 2 3 6 4 7 6 2 21 6 22 7 7 13 15 15
18 20 19 19 17 15 16 20 22 22 18 20 25 28 26 26 30 29 14 15 19 11 13 7 1 4 3 4 4 2 5 6 3 1 5 11 11 22 12 14 15 11 14 14
23 21 20 19 18 17 16 18 21 23 11 5 14 21 19 18 23 28 34 32 17 20 18 7 3 3 6 4 3 5 5 9 7 5 5 6 13 19 22 22 16 15 15 16
24 23 21 20 18 17 17 19 22 24 22 3 5 9 16 15 14 12 17 33 23 14 9 4 5 6 3 3 2 4 12 9 6 8 11 10 10 11 16 20 21 20 20 19
24 23 22 21 20 16 15 9 18 26 26 6 2 7 10 15 21 17 18 11 15 14 7 5 6 8 11 5 4 10 24 28 27 17 23 19 13 9 12 14 18 21 19 18
26 25 25 23 21 18 18 8 4 6 26 6 2 4 4 9 10 10 8 9 10 7 3 6 4 5 7 1 4 2 15 18 24 22 16 11 13 7 9 11 14 17 18 17
27 26 24 23 20 17 21 27 22 9 16 4 2 3 3 2 2 3 4 4 4 4 2 2 3 4 1 4 7 7 10 13 17 18 16 11 4 8 8 10 14 17 19 19
29 26 25 22 22 19 19 16 14 21 11 2 3 3 2 6 1 1 1 2 1 1 0 1 5 2 5 3 3 8 11 8 7 12 10 8 9 9 10 13 15 17 19 18
28 23 12 8 13 14 10 6 6 11 8 9 3 4 2 5 4 2 1 1 1 1 2 3 1 3 5 5 4 4 6 12 8 11 10 11 11 12 14 14 15 15 15 14
27 13 6 21 24 11 6 5 4 4 2 6 6 11 4 9 3 3 4 1 0 1 3 3 2 3 3 9 9 9 6 6 11 10 7 9 8 14 15 14 13 12 11 10
19 15 23 20 6 4 3 2 1 4 4 5 5 4 3 6 5 3 4 3 2 4 0 2 3 3 9 9 6 3 6 9 13 5 5 8 10 11 11 11 10 9 8 7
21 6 5 3 3 2 5 7 3 2 5 7 6 2 5 4 2 3 2 4 2 5 1 3 3 6 7 5 5 6 7 7 8 7 8 9 10 10 9 9 8 8 9 10
5 4 3 2 3 3 2 1 1 1 2 9 10 5 2 2 2 1 3 2 2 2 1 4 2 10 8 1 4 5 6 6 5 5 6 6 7 7 9 10 12 15 17 18
5 4 3 1 0 1 0 2 2 2 7 11 7 5 3 1 2 1 3 2 3 4 4 2 4 8 8 3 1 2 3 4 6 7 9 10 12 15 17 18 21 23 26 27
4 6 3 2 2 2 3 4 4 4 7 6 4 2 2 1 1 2 4 4 4 2 2 2 3 5 6 6 5 5 7 10 12 14 16 19 21 23 26 28 30 32 32 33
4 4 8 6 6 4 4 5 4 2 3 2 3 3 2 2 3 1 1 3 1 3 6 7 8 11 13 15 17 17 18 20 22 24 25 27 29 30 32 35 36 34 34 34
Wind_Direction
270 277 280 254 245 240 200 243 194 199 196 187 215 205 186 190 189 197 183 173 197 183 184 196 212 206 196 169 152 176 207 171 219 212 185 180 192 210 160 169 224 234 216 264
264 270 280 307 258 239 239 273 302 199 199 211 219 278 207 216 189 187 160 183 205 188 179 224 221 188 127 157 156 175 181 209 276 295 0 351 216 195 187 124 126 231 224 260
261 253 249 251 281 283 223 290 270 218 227 245 42 85 283 238 231 257 190 187 147 164 216 231 224 188 170 150 173 206 162 197 199 255 231 119 197 206 204 204 194 232 229 268
264 260 254 252 249 260 249 225 250 231 206 230 228 254 309 233 233 224 205 243 234 196 237 234 218 184 154 182 154 132 215 255 214 254 250 258 254 251 210 205 230 226 264 235
266 263 246 247 228 228 238 208 219 231 247 211 207 223 187 214 262 246 285 269 293 275 237 229 203 198 184 195 167 174 172 271 211 258 234 236 251 245 218 234 242 245 251 267
251 261 261 248 236 229 236 247 248 276 206 25 229 208 225 217 213 227 223 254 282 268 249 267 290 288 271 214 175 195 181 214 191 259 210 251 268 230 217 218 233 231 243 250
237 242 246 255 260 246 251 245 252 230 243 201 232 238 225 229 229 231 229 234 239 246 280 269 246 231 230 198 194 189 197 211 202 237 43 255 266 139 206 223 239 241 250 262
238 239 247 258 257 253 252 250 258 250 275 227 217 220 238 262 267 256 243 234 254 235 221 181 204 204 251 224 231 217 211 206 235 243 243 298 297 196 196 184 260 214 225 251
232 237 235 244 253 260 253 259 257 254 241 223 271 279 236 232 206 228 225 212 232 226 205 186 200 205 183 209 246 1 224 227 218 174 226 237 275 304 132 129 280 241 199 209
236 241 244 247 251 249 257 261 255 263 216 244 246 226 263 218 193 232 206 204 202 205 196 223 211 205 191 194 198 169 165 198 222 233 241 241 216 168 140 144 244 212 197 196
242 245 253 254 256 252 248 262 268 262 269 268 235 230 230 272 233 219 175 167 195 185 223 213 214 210 203 181 210 176 173 170 204 227 228 252 147 114 171 217 190 193 196 195
239 245 249 249 254 255 252 257 263 267 243 253 264 262 247 241 246 257 240 240 163 209 217 213 148 206 165 166 232 20 220 195 196 198 212 190 185 200 206 206 212 212 211 201
242 245 249 255 258 259 261 264 266 256 254 265 257 261 267 254 247 242 236 237 228 214 218 191 201 228 144 167 216 155 232 183 222 335 233 228 215 227 229 233 234 232 218 211
245 247 249 248 253 257 262 266 266 263 235 243 246 249 254 254 246 245 239 241 235 229 222 206 168 213 184 187 156 210 193 159 192 247 273 284 258 241 241 244 232 226 217 211
243 244 245 247 250 254 258 268 267 261 252 235 263 274 265 252 226 233 256 250 246 208 197 195 218 175 161 96 86 235 182 200 192 237 217 219 244 238 238 234 234 228 217 206
243 244 246 248 252 256 263 294 271 257 254 255 212 252 245 239 238 237 233 245 245 231 200 188 200 202 190 186 208 243 236 236 236 240 253 244 237 225 228 235 235 227 217 217
243 244 246 247 246 235 226 225 268 275 229 208 294 282 264 232 231 222 215 224 203 228 231 209 170 201 201 184 232 241 244 240 236 234 237 237 237 239 232 235 229 214 208 200
242 241 242 241 239 239 240 244 247 274 212 218 241 279 318 170 313 287 169 163 170 219 221 174 153 152 219 240 241 248 229 222 224 226 228 231 225 214 214 212 206 198 191 186
240 237 233 228 220 222 231 243 250 250 232 273 170 188 205 173 8 83 111 115 86 236 216 220 169 159 223 241 259 243 227 217 234 213 214 212 204 194 192 189 182 188 176 178
236 209 210 166 164 181 192 215 205 214 210 212 206 176 179 161 126 294 115 155 207 220 246 164 197 258 265 265 268 251 237 225 212 179 169 182 180 181 177 178 177 181 178 178
198 167 121 132 136 138 165 189 211 179 221 211 197 187 151 181 139 184 199 209 182 151 253 175 262 272 281 337 315 267 236 222 212 227 242 216 213 191 182 176 176 179 181 184
149 141 122 133 137 122 136 188 213 224 224 173 155 177 141 152 159 121 167 177 142 239 54 77 267 263 335 340 351 332 220 203 190 185 182 179 175 180 185 188 186 189 199 212
119 105 103 106 52 134 196 193 242 234 178 167 162 123 135 134 135 114 146 176 185 118 86 234 232 314 346 12 50 76 107 135 166 158 160 164 173 181 190 197 210 229 247 262
86 83 77 138 168 243 198 171 134 135 165 157 141 96 108 118 93 68 131 71 124 118 309 238 266 342 343 100 100 103 113 125 144 162 176 191 204 218 233 246 258 267 271 277
66 52 128 146 278 356 37 110 111 47 141 138 111 91 101 75 108 38 111 127 226 205 228 240 2 26 47 109 125 185 208 225 235 243 250 254 260 264 265 269 275 277 279 282
73 52 80 118 116 48 50 72 76 78 133 116 89 100 98 101 108 128 200 149 224 257 237 345 9 1 360 347 317 288 276 272 270 270 273 274 275 277 278 278 279 281 283 284
60 38 43 68 73 65 59 52 18 53 161 171 104 105 177 57 55 325 255 198 241 317 317 308 305 304 304 302 297 292 288 284 281 281 281 281 281 280 279 279 281 283 283 282
Height
1503 1503 1503 1501 1503 1507 1504 1506 1506 1505 1505 1509 1501 1499 1499 1498 1497 1500 1503 1506 1506 1511 1515 1519 1521 1516 1512 1516 1519 1528 1526 1535 1536 1529 1525 1526 1528 1529 1530 1539 1543 1551 1549 1502
1500 1500 1501 1499 1501 1503 1504 1504 1501 1500 1501 1497 1496 1498 1496 1496 1496 1496 1499 1500 1502 1505 1509 1516 1511 1510 1511 1512 1515 1521 1524 1530 1535 1524 1529 1527 1525 1525 1525 1527 1531 1521 1535 1503
1496 1498 1498 1497 1500 1501 1502 1503 1501 1499 1497 1493 1494 1496 1498 1496 1495 1496 1496 1499 1502 1506 1505 1506 1503 1508 1509 1510 1513 1517 1517 1524 1518 1508 1512 1519 1525 1523 1522 1518 1524 1518 1510 1497
1490 1493 1495 1496 1496 1499 1501 1500 1498 1494 1494 1494 1495 1498 1499 1498 1498 1497 1496 1496 1499 1503 1505 1504 1503 1507 1508 1509 1511 1516 1520 1516 1519 1513 1517 1517 1516 1516 1517 1519 1515 1515 1489 1496
1485 1488 1490 1492 1494 1495 1496 1498 1498 1495 1493 1492 1496 1496 1492 1496 1501 1502 1499 1499 1500 1501 1501 1504 1506 1505 1506 1508 1511 1513 1516 1514 1515 1512 1512 1510 1507 1500 1506 1509 1507 1505 1499 1489
1481 1482 1484 1487 1490 1492 1489 1491 1492 1493 1492 1491 1491 1489 1490 1489 1491 1495 1497 1498 1499 1499 1499 1500 1498 1503 1504 1505 1508 1509 1512 1510 1513 1508 1508 1508 1505 1497 1495 1490 1490 1488 1491 1473
1476 1476 1477 1481 1485 1488 1488 1486 1489 1490 1483 1487 1488 1487 1488 1488 1487 1489 1490 1493 1495 1493 1493 1493 1495 1496 1498 1500 1501 1501 1504 1508 1509 1504 1509 1503 1477 1479 1483 1485 1475 1478 1480 1474
1467 1471 1473 1475 1478 1482 1482 1485 1485 1482 1479 1478 1479 1481 1483 1484 1486 1485 1486 1487 1490 1489 1493 1495 1493 1495 1495 1493 1489 1492 1494 1499 1500 1498 1496 1486 1475 1476 1481 1481 1472 1466 1471 1472
1463 1464 1467 1471 1474 1476 1477 1478 1481 1480 1479 1476 1478 1479 1478 1479 1481 1482 1480 1482 1484 1486 1489 1487 1484 1487 1485 1486 1486 1487 1487 1488 1493 1502 1496 1494 1470 1471 1470 1472 1475 1461 1463 1467
1457 1459 1462 1465 1469 1471 1472 1470 1474 1475 1471 1468 1472 1475 1474 1473 1474 1477 1478 1476 1478 1480 1478 1478 1477 1477 1473 1474 1478 1487 1485 1485 1482 1479 1479 1476 1465 1468 1471 1479 1469 1459 1460 1463
1452 1454 1457 1459 1462 1465 1467 1465 1468 1471 1468 1464 1466 1466 1467 1470 1469 1469 1470 1474 1470 1472 1472 1467 1467 1466 1465 1466 1463 1470 1473 1477 1483 1478 1474 1472 1457 1466 1468 1459 1456 1456 1457 1459
1447 1450 1453 1454 1457 1459 1461 1461 1460 1464 1462 1460 1460 1459 1459 1460 1462 1466 1465 1462 1463 1462 1459 1459 1459 1460 1461 1460 1461 1463 1467 1462 1467 1464 1459 1451 1451 1450 1451 1452 1454 1455 1456 1458
1443 1445 1446 1450 1452 1453 1456 1456 1458 1459 1458 1453 1452 1446 1449 1452 1453 1456 1457 1455 1455 1454 1453 1454 1453 1454 1453 1456 1460 1462 1459 1456 1460 1459 1447 1447 1448 1448 1449 1449 1450 1452 1453 1455
1438 1438 1441 1444 1446 1448 1451 1450 1452 1453 1451 1448 1439 1439 1441 1442 1442 1446 1447 1448 1446 1447 1450 1445 1446 1449 1443 1449 1447 1453 1447 1451 1450 1450 1444 1444 1442 1441 1442 1444 1446 1448 1449 1452
1430 1432 1436 1438 1439 1446 1445 1443 1444 1446 1448 1441 1438 1437 1437 1435 1435 1438 1440 1440 1440 1438 1443 1439 1440 1441 1445 1447 1449 1449 1439 1437 1440 1433 1432 1434 1434 1435 1437 1438 1437 1441 1445 1447
1423 1425 1428 1431 1435 1438 1441 1439 1436 1436 1439 1437 1436 1432 1426 1429 1430 1432 1432 1428 1434 1434 1430 1432 1431 1431 1436 1440 1439 1419 1420 1422 1424 1425 1426 1428 1430 1431 1433 1433 1434 1437 1441 1444
1414 1418 1422 1425 1429 1432 1433 1434 1433 1430 1430 1430 1430 1426 1426 1424 1425 1425 1422 1426 1429 1431 1428 1428 1428 1431 1431 1429 1427 1411 1416 1417 1420 1420 1422 1425 1425 1427 1428 1430 1431 1435 1438 1441
1406 1410 1414 1418 1422 1425 1425 1424 1429 1430 1429 1427 1429 1427 1426 1424 1425 1425 1422 1423 1424 1426 1426 1426 1427 1430 1429 1427 1411 1413 1412 1412 1414 1416 1419 1422 1422 1424 1426 1427 1429 1432 1435 1439
1398 1403 1407 1411 1414 1416 1417 1421 1426 1427 1426 1423 1424 1425 1423 1424 1425 1423 1423 1422 1426 1427 1426 1426 1427 1427 1425 1411 1411 1410 1410 1412 1413 1415 1417 1419 1422 1423 1425 1427 1429 1431 1434 1438
1389 1395 1397 1396 1403 1410 1417 1421 1422 1421 1418 1419 1418 1418 1420 1420 1422 1424 1425 1425 1425 1433 1427 1425 1424 1417 1410 1411 1410 1409 1409 1411 1412 1414 1417 1419 1420 1423 1425 1426 1429 1432 1434 1437
1380 1385 1392 1399 1404 1409 1414 1416 1417 1416 1415 1412 1411 1410 1413 1416 1419 1423 1423 1425 1425 1433 1428 1427 1425 1419 1411 1409 1407 1407 1408 1410 1412 1415 1416 1417 1419 1421 1424 1426 1430 1432 1434 1436
1372 1380 1393 1399 1402 1407 1412 1413 1413 1411 1408 1407 1409 1410 1412 1415 1416 1417 1421 1422 1425 1430 1428 1428 1430 1418 1412 1409 1407 1406 1407 1409 1412 1414 1416 1418 1420 1423 1425 1428 1429 1431 1433 1434
1379 1384 1390 1395 1404 1407 1407 1411 1411 1411 1403 1404 1407 1410 1411 1414 1416 1417 1418 1420 1421 1426 1430 1427 1422 1415 1413 1411 1410 1409 1409 1411 1413 1415 1418 1420 1421 1424 1426 1427 1428 1429 1430 1431
1380 1386 1398 1400 1402 1405 1402 1402 1402 1403 1402 1403 1405 1408 1410 1412 1414 1416 1417 1423 1424 1430 1443 1429 1419 1415 1413 1413 1413 1413 1414 1415 1417 1418 1420 1421 1421 1422 1423 1424 1425 1425 1425 1425
1385 1389 1398 1404 1403 1402 1402 1402 1403 1403 1402 1403 1405 1408 1411 1414 1416 1417 1420 1424 1424 1427 1426 1421 1418 1416 1414 1414 1414 1415 1416 1417 1418 1418 1418 1418 1418 1418 1418 1419 1419 1418 1417 1417
1392 1398 1401 1401 1402 1404 1403 1403 1403 1403 1404 1405 1406 1410 1412 1415 1415 1418 1417 1421 1424 1420 1419 1418 1418 1417 1416 1416 1415 1415 1415 1415 1414 1414 1413 1412 1412 1411 1410 1410 1409 1408 1407 1406
1398 1403 1403 1403 1404 1405 1405 1405 1404 1404 1405 1407 1408 1414 1412 1422 1426 1425 1423 1422 1420 1419 1418 1418 1417 1416 1414 1413 1412 1411 1410 1409 1407 1406 1405 1404 1404 1402 1400 1398 1398 1397 1396 1394